Change the Weather History Date:

Thursday, November 10, 2011

  Actual Average Record
Temperature  
Mean Temperature 31 °F -  
Max Temperature 37 °F 36 °F 58 °F (1936)
Min Temperature 23 °F 26 °F 1 °F (1989)
Degree Days  
Heating Degree Days 34    
Moisture  
Dew Point 26 °F    
Average Humidity 78    
Maximum Humidity 100    
Minimum Humidity 41    
Precipitation  
Precipitation 0.01 in - - ()
Sea Level Pressure  
Sea Level Pressure 29.62 in    
Wind  
Wind Speed 6 mph (West)    
Max Wind Speed 23 mph    
Max Gust Speed 38 mph    
Visibility 9 miles    
Events Snow    
Averages and records for this station are not official NWS values.
T = Trace of Precipitation, MM = Missing Value Source: NWS Daily Summary

Daily Weather History Graph

Daily Weather History Graph

Search for Another Location

Airport or City:

Trip Planner

Search our weather history database for the weather conditions in past years. The results will help you decide how hot, cold, wet, or windy it might be!

Date:

Astronomy

Nov. 10, 2011 Rise Set
Actual Time 8:49 AM AKST 4:49 PM AKST
Civil Twilight 8:02 AM AKST 5:36 PM AKST
Nautical Twilight 7:12 AM AKST 6:26 PM AKST
Astronomical Twilight 6:23 AM AKST 7:14 PM AKST
Moon 4:24 PM AKST (11/10) 9:08 AM AKST (11/10)
Length of Visible Light 9h 34m
Length of Day
8h 00m
Full, 100% of the Moon is Illuminated
Nov 10
Full
Nov 18
Last Quarter
Nov 24
New
Dec 2
First Quarter
Dec 10
Full

Hourly Weather History & Observations

Time (AKST) Temp. Windchill Dew Point Humidity Pressure Visibility Wind Dir Wind Speed Gust Speed Precip Events Conditions
12:53 AM 30.9 °F 26.2 °F 27.0 °F 85% 29.57 in 7.0 mi SW 4.6 mph - 0.00 in Snow Light Snow
1:10 AM 30.2 °F 25.4 °F 28.4 °F 93% 29.57 in 8.0 mi SW 4.6 mph - 0.00 in   Overcast
1:22 AM 30.2 °F 25.4 °F 30.2 °F 100% 29.56 in 10.0 mi South 4.6 mph - 0.00 in   Overcast
1:33 AM 32.0 °F - 30.2 °F 93% 29.57 in 7.0 mi Calm Calm - 0.00 in Snow Light Snow
1:44 AM 30.2 °F - 28.4 °F 93% 29.57 in 6.0 mi Calm Calm - 0.00 in Snow Light Snow
1:53 AM 30.0 °F - 28.0 °F 92% 29.57 in 5.0 mi Calm Calm - 0.00 in Snow Light Snow
2:05 AM 30.2 °F - 28.4 °F 93% 29.56 in 9.0 mi Calm Calm - 0.00 in   Overcast
3:53 AM 30.9 °F 27.5 °F 30.0 °F 96% 29.55 in 10.0 mi SW 3.5 mph - N/A   Overcast
4:53 AM 30.9 °F 25.2 °F 30.0 °F 96% 29.55 in 10.0 mi West 5.8 mph - N/A   Overcast
5:10 AM 30.2 °F 25.4 °F 30.2 °F 100% 29.54 in 10.0 mi West 4.6 mph - N/A   Overcast
5:17 AM 30.2 °F 23.4 °F 30.2 °F 100% 29.54 in 10.0 mi West 6.9 mph - N/A   Overcast
5:34 AM 32.0 °F 27.5 °F 30.2 °F 93% 29.53 in 1.8 mi WSW 4.6 mph - 0.01 in Snow Light Snow
5:43 AM 30.2 °F 25.4 °F 30.2 °F 100% 29.52 in 2.5 mi WSW 4.6 mph - 0.01 in Snow Light Snow
5:50 AM 30.2 °F 26.7 °F 30.2 °F 100% 29.52 in 5.0 mi WSW 3.5 mph - 0.01 in Snow Light Snow
5:53 AM 30.9 °F - 30.9 °F 100% 29.53 in 7.0 mi Calm Calm - 0.01 in Snow Light Snow
6:29 AM 33.8 °F 27.0 °F 32.0 °F 93% 29.52 in 10.0 mi SW 8.1 mph - 0.00 in   Overcast
6:37 AM 33.8 °F 26.4 °F 33.8 °F 100% 29.52 in 10.0 mi SW 9.2 mph - 0.00 in   Overcast
6:53 AM 36.0 °F 24.4 °F 28.0 °F 73% 29.51 in 10.0 mi WSW 23.0 mph 32.2 mph 0.00 in   Overcast
7:29 AM 35.6 °F 24.0 °F 30.2 °F 81% 29.50 in 10.0 mi West 23.0 mph 38.0 mph N/A   Overcast
7:50 AM 35.6 °F 25.9 °F 28.4 °F 75% 29.51 in 10.0 mi West 16.1 mph 32.2 mph N/A   Mostly Cloudy
7:53 AM 35.1 °F 26.4 °F 28.0 °F 76% 29.52 in 10.0 mi West 12.7 mph 29.9 mph N/A   Mostly Cloudy
8:53 AM 34.0 °F 24.2 °F 27.0 °F 75% 29.55 in 10.0 mi West 15.0 mph 21.9 mph N/A   Clear
9:53 AM 36.0 °F 30.3 °F 24.1 °F 62% 29.58 in 10.0 mi WNW 6.9 mph 17.3 mph N/A   Partly Cloudy
10:53 AM 36.0 °F 26.7 °F 24.1 °F 62% 29.60 in 10.0 mi West 15.0 mph 25.3 mph N/A   Clear
11:53 AM 37.0 °F 27.7 °F 25.0 °F 62% 29.63 in 10.0 mi West 16.1 mph 24.2 mph N/A   Scattered Clouds
12:53 PM 37.0 °F 29.3 °F 25.0 °F 62% 29.67 in 10.0 mi WNW 11.5 mph 26.5 mph N/A   Clear
1:53 PM 37.0 °F 28.5 °F 24.1 °F 59% 29.69 in 10.0 mi West 13.8 mph 21.9 mph N/A   Clear
2:53 PM 37.0 °F 28.5 °F 15.1 °F 41% 29.72 in 10.0 mi West 13.8 mph 21.9 mph N/A   Clear
3:53 PM 36.0 °F 32.1 °F 16.0 °F 44% 29.74 in 10.0 mi Variable 4.6 mph - N/A   Clear
4:53 PM 35.1 °F 29.3 °F 18.0 °F 50% 29.77 in 10.0 mi West 6.9 mph - N/A   Clear
5:53 PM 35.1 °F 29.3 °F 17.1 °F 48% 29.80 in 10.0 mi West 6.9 mph - N/A   Clear
6:53 PM 34.0 °F 26.0 °F 19.0 °F 54% 29.79 in 10.0 mi West 10.4 mph 16.1 mph N/A   Clear
7:53 PM 34.0 °F 26.0 °F 21.0 °F 59% 29.81 in 10.0 mi West 10.4 mph - N/A   Clear
8:53 PM 28.9 °F 22.8 °F 19.9 °F 69% 29.84 in 10.0 mi ENE 5.8 mph - N/A   Clear
9:53 PM 25.0 °F 20.7 °F 18.0 °F 75% 29.85 in 10.0 mi North 3.5 mph - N/A   Clear
10:53 PM 25.0 °F - 18.0 °F 75% 29.86 in 10.0 mi Calm Calm - N/A   Clear
11:53 PM 23.0 °F - 16.0 °F 74% 29.86 in 10.0 mi Calm Calm - N/A   Clear